New Roads False River Regiona, LA

1:36 PM CDT on October 23, 2019 (GMT -0500)
False River

Weather History for KHZR - August, 2019

Change the Weather History Date:

Saturday, August 31, 2019

  Actual Average (KBTR) Record (KBTR)
Temperature  
Mean Temperature 81 °F -  
Max Temperature 91 °F 90 °F 101 °F (2000)
Min Temperature 71 °F 71 °F 61 °F (1946)
Cooling Degree Days 16    
Growing Degree Days 31 (Base 50)    
Moisture  
Dew Point 71 °F    
Average Humidity 76    
Maximum Humidity 100    
Minimum Humidity 49    
Precipitation  
Precipitation 0.00 in - - ()
Sea Level Pressure  
Sea Level Pressure 30.01 in    
Wind  
Wind Speed 2 mph ()    
Max Wind Speed 8 mph    
Max Gust Speed -    
Visibility 9.7 miles    
Events      
Averages and records for this station are not official NWS values.
T = Trace of Precipitation, MM = Missing Value Source: Averaged Metar Reports

Daily Weather History Graph

Daily Weather History Graph

Search for Another Location

Airport or City:

Astronomy

Aug. 31, 2019 Rise Set
Actual Time 6:41 AM CDT 7:30 PM CDT
Civil Twilight 6:17 AM CDT 7:54 PM CDT
Nautical Twilight 5:48 AM CDT 8:23 PM CDT
Astronomical Twilight 5:18 AM CDT 8:53 PM CDT
Moon 7:56 AM CDT (8/31) 8:48 PM CDT (8/31)
Length of Visible Light 13h 37m
Length of Day
12h 48m
New Moon, 3% of the Moon is Illuminated
Aug 31
New Moon
Sep 5
First Quarter
Sep 13
Full
Sep 21
Last Quarter
Sep 28
New

Hourly Weather History & Observations

Time (CDT) Temp. Heat Index Dew Point Humidity Pressure Visibility Wind Dir Wind Speed Gust Speed Precip Events Conditions
12:36 AM 75.2 °F - 73.4 °F 94% 30.02 in 10.0 mi Calm Calm - N/A   Clear
12:56 AM 75.2 °F - 73.4 °F 94% 30.02 in 10.0 mi Calm Calm - N/A   Clear
1:16 AM 75.2 °F - 73.4 °F 94% 30.02 in 10.0 mi Calm Calm - N/A   Clear
1:36 AM 75.2 °F - 73.4 °F 94% 30.02 in 10.0 mi Calm Calm - N/A   Clear
1:58 AM 75.2 °F - 73.4 °F 94% 30.01 in 10.0 mi Calm Calm - N/A   Clear
2:16 AM 73.4 °F - 73.4 °F 100% 30.02 in 10.0 mi Calm Calm - N/A   Clear
2:36 AM 75.2 °F - 71.6 °F 89% 30.01 in 10.0 mi East 3.5 mph - N/A   Clear
2:56 AM 73.4 °F - 71.6 °F 94% 30.01 in 10.0 mi Calm Calm - N/A   Clear
3:16 AM 73.4 °F - 71.6 °F 94% 30.01 in 10.0 mi Calm Calm - N/A   Clear
3:36 AM 73.4 °F - 71.6 °F 94% 30.02 in 10.0 mi North 3.5 mph - N/A   Clear
3:56 AM 73.4 °F - 71.6 °F 94% 30.02 in 10.0 mi Calm Calm - N/A   Clear
4:16 AM 71.6 °F - 71.6 °F 100% 30.02 in 10.0 mi Calm Calm - N/A   Clear
4:56 AM 71.6 °F - 71.6 °F 100% 30.02 in 7.0 mi Calm Calm - N/A   Clear
5:16 AM 71.6 °F - 71.6 °F 100% 30.02 in 7.0 mi Calm Calm - N/A   Clear
5:38 AM 71.6 °F - 71.6 °F 100% 30.02 in 7.0 mi Calm Calm - N/A   Clear
5:58 AM 71.6 °F - 71.6 °F 100% 30.02 in 7.0 mi Calm Calm - N/A   Clear
6:36 AM 71.6 °F - 69.8 °F 94% 30.03 in 7.0 mi Calm Calm - N/A   Clear
6:56 AM 71.6 °F - 69.8 °F 94% 30.04 in 7.0 mi Calm Calm - N/A   Clear
7:16 AM 71.6 °F - 71.6 °F 100% 30.05 in 10.0 mi Calm Calm - N/A   Clear
7:36 AM 73.4 °F - 73.4 °F 100% 30.04 in 10.0 mi Calm Calm - N/A   Clear
7:56 AM 75.2 °F - 73.4 °F 94% 30.04 in 10.0 mi Calm Calm - N/A   Clear
8:16 AM 77.0 °F - 73.4 °F 89% 30.04 in 10.0 mi Calm Calm - N/A   Clear
8:36 AM 78.8 °F - 73.4 °F 83% 30.04 in 10.0 mi Calm Calm - N/A   Clear
8:56 AM 78.8 °F - 73.4 °F 83% 30.04 in 10.0 mi Calm Calm - N/A   Clear
9:16 AM 80.6 °F 86.2 °F 75.2 °F 84% 30.04 in 10.0 mi Calm Calm - N/A   Clear
9:36 AM 82.4 °F 88.2 °F 73.4 °F 74% 30.05 in 10.0 mi Calm Calm - N/A   Clear
9:58 AM 82.4 °F 89.5 °F 75.2 °F 79% 30.05 in 10.0 mi Calm Calm - N/A   Clear
10:56 AM 86.0 °F 91.8 °F 71.6 °F 62% 30.05 in 10.0 mi Calm Calm - N/A   Clear
11:38 AM 87.8 °F 93.8 °F 71.6 °F 58% 30.04 in 10.0 mi NNE 3.5 mph - N/A   Clear
11:56 AM 87.8 °F 93.8 °F 71.6 °F 58% 30.04 in 10.0 mi ENE 4.6 mph - N/A   Scattered Clouds
12:16 PM 89.6 °F 96.2 °F 71.6 °F 55% 30.04 in 10.0 mi ENE 5.8 mph - N/A   Clear
12:56 PM 89.6 °F 96.2 °F 71.6 °F 55% 30.03 in 10.0 mi North 5.8 mph - N/A   Scattered Clouds
1:16 PM 89.6 °F 94.7 °F 69.8 °F 52% 30.03 in 10.0 mi NE 4.6 mph - N/A   Scattered Clouds
1:37 PM 89.6 °F 96.2 °F 71.6 °F 55% 30.02 in 10.0 mi ENE 5.8 mph - N/A   Scattered Clouds
1:56 PM 89.6 °F 96.2 °F 71.6 °F 55% 30.02 in 10.0 mi ENE 4.6 mph - N/A   Clear
2:16 PM 91.4 °F 96.8 °F 69.8 °F 49% 30.02 in 10.0 mi East 4.6 mph - N/A   Scattered Clouds
2:38 PM 87.8 °F 92.6 °F 69.8 °F 55% 30.01 in 10.0 mi NE 4.6 mph - N/A   Scattered Clouds
2:56 PM 89.6 °F 94.7 °F 69.8 °F 52% 30.00 in 10.0 mi NE 6.9 mph - N/A   Scattered Clouds
3:16 PM 89.6 °F 94.7 °F 69.8 °F 52% 30.00 in 10.0 mi ENE 5.8 mph - N/A   Scattered Clouds
3:36 PM 91.4 °F 96.8 °F 69.8 °F 49% 30.00 in 10.0 mi NE 8.1 mph - N/A   Scattered Clouds
3:56 PM 89.6 °F 94.7 °F 69.8 °F 52% 30.00 in 10.0 mi NNE 4.6 mph - N/A   Scattered Clouds
4:18 PM 91.4 °F 96.8 °F 69.8 °F 49% 29.99 in 10.0 mi NNE 6.9 mph - N/A   Scattered Clouds
4:36 PM 89.6 °F 94.7 °F 69.8 °F 52% 29.99 in 10.0 mi NE 6.9 mph - N/A   Scattered Clouds
4:56 PM 89.6 °F 94.7 °F 69.8 °F 52% 29.98 in 10.0 mi NE 6.9 mph - N/A   Scattered Clouds
5:36 PM 87.8 °F 92.6 °F 69.8 °F 55% 29.98 in 10.0 mi NNE 4.6 mph - N/A   Clear
6:16 PM 87.8 °F 92.6 °F 69.8 °F 55% 29.97 in 10.0 mi NE 4.6 mph - N/A   Clear
6:36 PM 87.8 °F 92.6 °F 69.8 °F 55% 29.97 in 10.0 mi ENE 4.6 mph - N/A   Clear
6:56 PM 86.0 °F 90.4 °F 69.8 °F 58% 29.97 in 10.0 mi ENE 4.6 mph - N/A   Clear
7:16 PM 84.2 °F 88.4 °F 69.8 °F 62% 29.98 in 10.0 mi East 4.6 mph - N/A   Clear
7:39 PM 82.4 °F 86.3 °F 69.8 °F 66% 29.98 in 10.0 mi ENE 4.6 mph - N/A   Clear
7:56 PM 80.6 °F 84.6 °F 71.6 °F 74% 29.98 in 10.0 mi ENE 3.5 mph - N/A   Clear
8:16 PM 80.6 °F 83.9 °F 69.8 °F 70% 29.99 in 10.0 mi NE 3.5 mph - N/A   Clear
8:36 PM 80.6 °F 83.9 °F 69.8 °F 70% 29.99 in 10.0 mi ENE 3.5 mph - N/A   Clear
8:58 PM 78.8 °F - 69.8 °F 74% 29.99 in 10.0 mi ENE 3.5 mph - N/A   Clear
9:16 PM 78.8 °F - 69.8 °F 74% 30.00 in 10.0 mi ENE 4.6 mph - N/A   Clear
9:36 PM 78.8 °F - 69.8 °F 74% 30.00 in 10.0 mi NE 3.5 mph - N/A   Clear
10:36 PM 73.4 °F - 71.6 °F 94% 30.00 in 10.0 mi Calm Calm - N/A   Clear
10:56 PM 73.4 °F - 71.6 °F 94% 30.01 in 10.0 mi Calm Calm - N/A   Clear
11:36 PM 73.4 °F - 71.6 °F 94% 30.01 in 10.0 mi Calm Calm - N/A   Clear
11:56 PM 71.6 °F - 71.6 °F 100% 30.00 in 10.0 mi Calm Calm - N/A   Clear